STARLINK-5551 (56359 NORAD) Tracking and Keplerian Element Data

This shows tracking and keplerian element data for the satellite.

Feedback or suggestion? Click here.




ElementValue
Catalog56359
NameSTARLINK-5551
Epoch Orbit5655
Epoch Day125.89589071
Epoch Year2024
RAAN127.4117
Inclination97.6564
Eccentricity0.0001348
Argument of Perigee96.8956
Mean Anonmoly263.2421
Mean Motion15.01258416
Decay Rate4.1E-07
L11 56359U 23058AU 24125.89589071 .00000041 00000+0 78182-5 0 9992
L22 56359 97.6564 127.4117 0001348 96.8956 263.2421 15.01258416 56553



Live tracking and technical data element details for STARLINK-5551 (NORAD 56359). STARLINK-5551 can be tracked NOW for your location showing map with azimuth and elevation plus other details from your city location.







IsCatalogInMostPopularTable: catalog: 56359, numindb: 15
Update: records affected: 1



GetName: 56359 STARLINK-5551

Hit Count: updated at: Thu, 30 May 2024 15:20:44 GMT